#timestamp,LO_Frequency,Hit,StdDev 
1589515215.1,286047000.2,N
1589515235.9,286047001.9,N
1589515255.7,286047002.6,N
1589515275.5,286047002.8,N
1589515295.4,286047001.0,N
1589515315.2,286046998.2,N
1589515335.0,286047002.4,N
1589515335.9,286047002.4,N
1589515355.8,286047004.4,N
1589515375.6,286047003.9,N
1589515395.5,286047001.6,N
1589515415.3,286047000.2,N
1589515435.1,286047001.4,N
1589515455.9,286047003.8,N
1589515475.7,286047001.3,N
1589515495.5,286047003.8,N
1589515515.4,286047004.1,N
1589515535.2,286047003.8,N
1589515555.0,286047001.6,N
1589515556.0,286047001.6,N
1589515575.8,286047002.5,N
1589515595.6,286047001.4,N
1589515615.5,286047004.4,N
1589515635.3,286047004.1,N
1589515655.1,286047001.6,N
1589515675.9,286047003.2,N
1589515695.7,286047005.6,Y
1589515715.5,286047000.2,P
1589515735.4,286047000.8,N
1589515755.2,286046999.6,N
1589515775.1,286046998.8,N
1589515776.0,286046998.8,N
1589515795.8,286046998.4,N
1589515815.6,286046998.8,N
1589515835.5,286047000.4,N
1589515855.3,286047000.3,N
1589515875.1,286046998.4,N
1589515895.9,286046999.7,N
1589515915.7,286047000.0,N
1589515935.6,286047000.6,N
1589515955.4,286047000.1,N
1589515975.2,286047001.7,N
1589515995.1,286047003.9,Y
1589515996.0,286047003.9,P
1589516015.8,286047002.9,N
1589516035.6,286047004.5,N
1589516055.5,286047006.6,Y
1589516075.3,286047004.6,P
1589516095.2,286047006.8,P
1589516115.9,286047006.5,P
1589516135.7,286047006.8,Y
1589516155.6,286047002.5,P
1589516175.4,286047004.4,P
1589516195.2,286047001.5,N
1589516215.1,286047004.2,N
1589516216.0,286047004.2,Y
1589516235.8,286046999.9,P
1589516255.7,286047002.2,N
1589516275.5,286046999.7,N
1589516295.3,286047000.3,N
1589516315.2,286047002.8,N
1589516335.0,286047000.6,N
1589516335.9,286047000.6,N
1589516355.8,286047002.0,N
1589516375.6,286047003.9,N
1589516395.4,286047006.0,Y
1589516415.3,286047004.0,P
1589516435.1,286047003.9,P
1589516455.8,286047002.8,N
1589516475.7,286047000.4,N
1589516495.5,286047001.2,N
1589516515.4,286047000.2,N
1589516535.2,286047000.0,N
1589516555.0,286047001.9,N
1589516555.9,286047001.9,N
1589516575.8,286047000.1,N
1589516595.6,286047002.7,N
1589516615.4,286046999.9,N
1589516635.3,286046999.9,N
1589516655.1,286047000.6,N
1589516675.8,286047001.2,N
1589516695.7,286047000.9,N
1589516715.5,286047000.8,N
1589516735.4,286046998.3,N
1589516755.2,286046999.3,N
1589516775.0,286047000.5,N
1589516775.9,286047000.5,N
1589516795.8,286047001.2,N
1589516815.6,286046998.3,N
1589516835.4,286046998.4,N
1589516855.3,286047002.0,N
1589516875.1,286047001.5,N
1589516895.9,286047000.0,N
1589516915.7,286046999.7,N
1589516935.5,286047002.1,N
1589516955.4,286047002.2,N
1589516975.2,286046999.7,N
1589516995.0,286047000.3,N
1589516995.9,286047000.3,N
1589517015.8,286047001.9,N
1589517035.6,286047000.9,N
1589517055.5,286047002.7,N
1589517075.3,286047000.9,N
1589517095.1,286046999.8,N
1589517115.9,286047001.1,N
1589517135.7,286047001.2,N
1589517155.5,286046999.8,N
1589517175.4,286047004.0,Y
1589517195.2,286047001.9,P
1589517215.1,286047002.7,P
1589517216.0,286047002.7,N
1589517235.8,286047000.6,N
1589517255.6,286047000.6,N
1589517275.5,286047000.6,N
1589517295.3,286046999.7,N
1589517315.1,286046998.2,N
1589517335.9,286046999.1,N
1589517355.7,286046998.3,N
1589517375.5,286046997.6,N
1589517395.4,286046994.9,Y
1589517415.2,286046993.4,P
1589517435.1,286046991.8,N
1589517436.0,286046991.8,N
1589517455.8,286046990.9,N
1589517475.6,286046992.8,N
1589517495.5,286046991.2,N
1589517515.3,286046993.2,N
1589517535.1,286046993.0,N
1589517555.9,286046993.0,N
1589517575.7,286046993.2,N
1589517595.6,286046992.9,N
1589517615.4,286046991.5,Y
1589517635.2,286046994.9,P
1589517655.1,286046995.0,P
1589517656.0,286046995.0,P
1589517675.8,286046998.8,N
1589517695.7,286046998.3,N
1589517715.5,286047002.8,N
1589517735.3,286047000.3,N
1589517755.2,286046998.7,N
1589517775.9,286046998.4,N
1589517795.7,286046999.4,N
1589517815.6,286046999.2,N
1589517835.4,286046998.4,N
1589517855.2,286046998.8,N
1589517875.1,286046999.6,N
1589517876.0,286046999.6,N
1589517895.8,286047000.8,N
1589517915.7,286046999.3,N
1589517935.5,286046998.1,N
1589517955.3,286046997.0,N
1589517975.2,286046996.7,N
1589517995.0,286046997.0,N
1589517995.9,286046997.0,N
1589518015.7,286046997.3,N
1589518035.6,286046997.8,N
1589518055.4,286046997.8,N
1589518075.3,286046995.1,N
1589518095.1,286046995.6,N
1589518115.8,286046996.1,N
1589518135.7,286046993.3,Y
1589518155.5,286046996.5,P
1589518175.4,286046998.8,N
1589518195.2,286046998.6,N
1589518215.0,286046999.2,N
1589518215.9,286046999.2,N
1589518235.8,286046999.2,N
1589518255.6,286046999.6,N
1589518275.4,286046998.6,N
1589518295.3,286046998.9,N
1589518315.1,286046996.6,Y
1589518335.9,286046998.9,P
1589518355.7,286046998.9,P
1589518375.5,286046998.2,P
1589518395.4,286047000.9,Y
1589518415.2,286047002.4,P
1589518435.0,286046999.7,N
1589518436.0,286046999.7,N
1589518455.8,286046999.7,N
1589518475.6,286047000.3,N
1589518495.5,286046999.9,N
1589518515.3,286047000.0,N
1589518535.1,286047000.7,N
1589518555.9,286047000.0,N
1589518575.7,286047001.1,N
1589518595.5,286047000.5,N
1589518615.4,286047000.3,N
1589518635.2,286047000.5,N
1589518655.1,286047000.4,N
1589518656.0,286047000.4,N
1589518675.8,286047000.9,N
1589518695.6,286047001.2,N
1589518715.5,286046999.8,N
1589518735.3,286047002.1,N
1589518755.1,286047002.5,N
1589518775.9,286047002.7,N
1589518795.7,286047002.5,N
